Date String (YYYY-MM-DD hh:mm:ss) UTC,Instrument flags,Ambient pressure (hPa),Sample flow (lpm),Bypass flow (lpm),Sample temperature (°C),Ambient temperature (°C),ASC tube jacket temperature (°C),LED temperature (°C),Box temperature (°C),Sample RH (%),Span deviation,Mass concentration (μg/m³),Mass concentration (μg/m³),Mass concentration (μg/m³)
DateTimeUTC,F1_M11,P_M11,Q1_M11,Q2_M11,T1_M11,T2_M11,T3_M11,T4_M11,T5_M11,U1_M11,ZSPAN_M11,X0_M11,X2_M11,X1_M11
2022-06-11 23:00:00,,0821.0,5.00,0.00,28.8,27.6,00.0,37.5,30.8,16.1,0000.0,0011.76,0004.30,0003.12
2022-06-11 23:01:00,,0821.0,5.00,0.00,28.8,27.8,00.0,37.5,30.9,15.7,0000.0,0011.75,0004.27,0003.10
2022-06-11 23:02:00,,0821.0,5.00,0.00,28.8,27.4,00.0,37.5,30.8,14.3,0000.0,0012.18,0004.24,0003.09
2022-06-11 23:03:00,,0821.0,5.00,0.00,28.8,27.0,00.0,37.5,30.6,15.0,0000.0,0012.35,0004.21,0003.07
2022-06-11 23:04:00,,0821.0,4.99,0.00,28.8,27.0,00.0,37.5,30.6,14.8,0000.0,0012.33,0004.18,0003.05
2022-06-11 23:05:00,,0821.0,5.00,0.00,28.7,27.1,00.0,37.5,30.6,14.9,0000.0,0011.65,0004.16,0003.04
2022-06-11 23:06:00,,0821.0,5.00,0.00,28.7,27.2,00.0,37.5,30.6,15.4,0000.0,0011.47,0004.15,0003.04
2022-06-11 23:07:00,,0821.0,5.00,0.00,28.8,27.4,00.0,37.5,30.7,15.4,0000.0,0011.40,0004.13,0003.03
2022-06-11 23:08:00,,0821.0,5.00,0.00,28.8,27.7,00.0,37.5,30.8,14.9,0000.0,0011.34,0004.10,0003.04
2022-06-11 23:09:00,,0821.0,5.01,0.00,28.9,27.8,00.0,37.6,30.9,14.6,0000.0,0011.17,0004.09,0003.03
2022-06-11 23:10:00,,0821.0,5.00,0.00,28.9,27.4,00.0,37.5,30.8,14.0,0000.0,0011.71,0004.09,0003.04
2022-06-11 23:11:00,,0821.0,5.00,0.00,28.8,27.0,00.0,37.5,30.6,13.3,0000.0,0012.05,0004.13,0003.06
2022-06-11 23:12:00,,0821.0,5.00,0.00,28.8,27.0,00.0,37.5,30.6,13.7,0000.0,0011.98,0004.18,0003.07
2022-06-11 23:13:00,,0821.0,5.00,0.00,28.7,27.1,00.0,37.5,30.6,13.6,0000.0,0011.54,0004.17,0003.09
2022-06-11 23:14:00,,0821.0,5.01,0.00,28.7,27.3,00.0,37.5,30.7,14.0,0000.0,0010.85,0004.15,0003.09
2022-06-11 23:15:00,,0821.0,5.00,0.00,28.8,27.5,00.0,37.5,30.7,14.2,0000.0,0010.50,0004.17,0003.12
2022-06-11 23:16:00,,0821.0,5.00,0.00,28.8,27.7,00.0,37.5,30.8,13.3,0000.0,0010.60,0004.18,0003.14
2022-06-11 23:17:00,,0821.0,5.00,0.00,28.9,27.8,00.0,37.6,30.9,13.9,0000.0,0010.97,0004.19,0003.13
2022-06-11 23:18:00,,0821.0,5.00,0.00,28.9,27.4,00.0,37.5,30.7,13.7,0000.0,0011.42,0004.21,0003.13
2022-06-11 23:19:00,,0821.0,5.00,0.00,28.8,26.9,00.0,37.5,30.6,14.5,0000.0,0011.65,0004.21,0003.12
2022-06-11 23:20:00,,0820.9,5.00,0.00,28.8,26.9,00.0,37.5,30.6,13.6,0000.0,0011.78,0004.25,0003.13
2022-06-11 23:21:00,,0820.9,5.00,0.00,28.7,27.0,00.0,37.5,30.6,13.7,0000.0,0011.90,0004.28,0003.12
2022-06-11 23:22:00,,0820.9,5.00,0.00,28.7,27.2,00.0,37.5,30.6,14.0,0000.0,0011.09,0004.29,0003.12
2022-06-11 23:23:00,,0820.9,5.00,0.00,28.8,27.4,00.0,37.5,30.7,15.7,0000.0,0011.30,0004.28,0003.12
2022-06-11 23:24:00,,0820.9,4.99,0.00,28.8,27.6,00.0,37.6,30.8,17.2,0000.0,0011.92,0004.31,0003.12
2022-06-11 23:25:00,,0820.8,5.00,0.00,28.9,27.8,00.0,37.6,30.9,16.7,0000.0,0011.82,0004.33,0003.13
2022-06-11 23:26:00,,0820.8,4.99,0.00,28.9,27.4,00.0,37.5,30.8,16.3,0000.0,0011.80,0004.30,0003.12
2022-06-11 23:27:00,,0820.7,5.01,0.00,28.8,26.9,00.0,37.5,30.6,14.2,0000.0,0011.72,0004.31,0003.11
2022-06-11 23:28:00,,0820.7,4.99,0.00,28.8,26.9,00.0,37.5,30.6,14.1,0000.0,0011.30,0004.28,0003.10
2022-06-11 23:29:00,,0820.7,5.00,0.00,28.7,27.0,00.0,37.5,30.6,13.9,0000.0,0011.15,0004.34,0003.12
2022-06-11 23:30:00,,0820.7,5.01,0.00,28.7,27.2,00.0,37.5,30.6,14.2,0000.0,0010.86,0004.37,0003.14
2022-06-11 23:31:00,,0820.8,5.00,0.00,28.8,27.4,00.0,37.5,30.7,13.8,0000.0,0010.66,0004.33,0003.14
2022-06-11 23:32:00,,0820.8,4.99,0.00,28.8,27.6,00.0,37.6,30.8,13.5,0000.0,0010.31,0004.29,0003.14
2022-06-11 23:33:00,,0820.8,5.00,0.00,28.9,27.8,00.0,37.6,30.9,13.4,0000.0,0010.60,0004.24,0003.14
2022-06-11 23:34:00,,0820.8,5.00,0.00,28.9,27.8,00.0,37.6,30.9,15.1,0000.0,0010.70,0004.19,0003.13
2022-06-11 23:35:00,,0820.8,4.99,0.00,28.9,27.1,00.0,37.5,30.7,14.0,0000.0,0010.06,0004.17,0003.13
2022-06-11 23:36:00,,0820.8,5.00,0.00,28.8,26.9,00.0,37.5,30.6,14.1,0000.0,0009.93,0004.19,0003.12
2022-06-11 23:37:00,,0820.8,5.00,0.00,28.8,27.0,00.0,37.5,30.6,14.9,0000.0,0009.87,0004.18,0003.12
2022-06-11 23:38:00,,0820.8,5.00,0.00,28.7,27.1,00.0,37.5,30.6,15.1,0000.0,0009.79,0004.16,0003.11
2022-06-11 23:39:00,,0820.8,5.00,0.00,28.8,27.3,00.0,37.5,30.7,15.4,0000.0,0010.09,0004.21,0003.12
2022-06-11 23:40:00,,0820.8,5.00,0.00,28.8,27.5,00.0,37.6,30.7,13.6,0000.0,0010.00,0004.16,0003.11
2022-06-11 23:41:00,,0820.8,5.00,0.00,28.8,27.7,00.0,37.6,30.8,13.6,0000.0,0010.43,0004.15,0003.10
2022-06-11 23:42:00,,0820.8,5.00,0.00,28.9,27.7,00.0,37.6,30.8,13.8,0000.0,0010.75,0004.15,0003.09
2022-06-11 23:43:00,,0820.7,4.99,0.00,28.8,27.1,00.0,37.5,30.7,13.9,0000.0,0010.59,0004.14,0003.10
2022-06-11 23:44:00,,0820.7,5.00,0.00,28.8,26.9,00.0,37.5,30.6,15.1,0000.0,0009.93,0004.16,0003.11
2022-06-11 23:45:00,,0820.7,4.99,0.00,28.8,27.0,00.0,37.5,30.6,16.3,0000.0,0009.54,0004.21,0003.10
2022-06-11 23:46:00,,0820.7,5.00,0.00,28.7,27.1,00.0,37.5,30.6,15.1,0000.0,0009.63,0004.22,0003.11
2022-06-11 23:47:00,,0820.7,4.99,0.00,28.7,27.3,00.0,37.5,30.6,15.1,0000.0,0009.76,0004.24,0003.11
2022-06-11 23:48:00,,0820.7,5.00,0.00,28.8,27.5,00.0,37.5,30.7,15.4,0000.0,0010.20,0004.27,0003.10
2022-06-11 23:49:00,,0820.7,5.00,0.00,28.8,27.7,00.0,37.6,30.8,15.9,0000.0,0010.45,0004.29,0003.10
2022-06-11 23:50:00,,0820.7,5.00,0.00,28.9,27.9,00.0,37.6,30.9,17.0,0000.0,0010.12,0004.23,0003.08
2022-06-11 23:51:00,,0820.7,5.01,0.00,28.9,27.5,00.0,37.5,30.8,16.1,0000.0,0009.95,0004.20,0003.06
2022-06-11 23:52:00,,0820.7,4.99,0.00,28.8,27.0,00.0,37.5,30.7,15.7,0000.0,0009.52,0004.19,0003.04
2022-06-11 23:53:00,,0820.7,5.00,0.00,28.8,26.9,00.0,37.5,30.6,16.0,0000.0,0009.92,0004.19,0003.04
2022-06-11 23:54:00,,0820.7,5.00,0.00,28.8,27.0,00.0,37.5,30.6,16.2,0000.0,0010.59,0004.22,0003.03
2022-06-11 23:55:00,,0820.7,4.99,0.00,28.7,27.2,00.0,37.5,30.6,16.7,0000.0,0011.24,0004.21,0003.02
2022-06-11 23:56:00,,0820.7,5.00,0.00,28.8,27.4,00.0,37.5,30.7,15.9,0000.0,0011.16,0004.16,0003.02
2022-06-11 23:57:00,,0820.6,5.01,0.00,28.8,27.6,00.0,37.6,30.8,14.9,0000.0,0011.28,0004.16,0003.02
2022-06-11 23:58:00,,0820.7,4.99,0.00,28.9,27.8,00.0,37.6,30.9,15.0,0000.0,0012.22,0004.13,0003.02
2022-06-11 23:59:00,,0820.7,5.01,0.00,28.9,27.8,00.0,37.6,30.9,14.0,0000.0,0012.47,0004.14,0003.04
